Weather History for Las Vegas, NV

Change the Weather History Date:

Tuesday, June 10, 2014

  Actual Average Record
Temperature  
Mean Temperature 95 °F 85 °F  
Max Temperature 106 °F 97 °F 108 °F (1996)
Min Temperature 84 °F 73 °F 51 °F (1954)
Degree Days  
Heating Degree Days 0 0  
Month to date heating degree days 0 0  
Since 1 June heating degree days 0 0  
Since 1 July heating degree days 1512 1950  
Cooling Degree Days 30 20  
Month to date cooling degree days 247 187  
Year to date cooling degree days 905 737  
Since 1 June cooling degree days 247 187  
Growing Degree Days 45 (Base 50)    
Moisture  
Dew Point 27 °F    
Average Humidity 9    
Maximum Humidity 14    
Minimum Humidity 3    
Precipitation  
Precipitation 0.00 in 0.01 in 0.82 in (1990)
Month to date precipitation 0.00 0.03  
Year to date precipitation 0.30 2.04  
Snow  
Snow 0.00 in 0.00 in 0.00 in ()
Month to date snowfall 0.0 0.0  
Since 1 June snowfall 0.0 0.0  
Since 1 July snowfall 0.0 0.3  
Snow Depth 0.00 in    
Sea Level Pressure  
Sea Level Pressure 29.60 in    
Wind  
Wind Speed 13 mph (South)    
Max Wind Speed 24 mph    
Max Gust Speed 33 mph    
Visibility 10 miles    
Events      
T = Trace of Precipitation, MM = Missing Value Source: NWS Daily Summary

Daily Weather History Graph

Daily Weather History Graph

Search for Another Location

Airport:

Trip Planner

Search our weather history database for the weather conditions in past years. The results will help you decide how hot, cold, wet, or windy it might be!

Date:

Astronomy

Jun. 10, 2014 Rise Set
Actual Time 5:23 AM PDT 7:57 PM PDT
Civil Twilight 4:53 AM PDT 8:27 PM PDT
Nautical Twilight 4:15 AM PDT 9:04 PM PDT
Astronomical Twilight 3:34 AM PDT 9:46 PM PDT
Moon 5:31 PM PDT (6/10) 3:26 AM PDT (6/10)
Length of Visible Light 15h 34m
Length of Day
14h 34m
Waxing Gibbous, 93% of the Moon is Illuminated
Jun 10
Waxing Gibbous
Jun 12
Full
Jun 19
Last Quarter
Jun 27
New
Jul 5
First Quarter

Hourly Weather History & Observations

Time (PDT) Temp. Dew Point Humidity Pressure Visibility Wind Dir Wind Speed Gust Speed Precip Events Conditions
12:56 AM 91.0 °F 23.0 °F 8% 29.60 in 10.0 mi SW 11.5 mph - N/A   Clear
1:56 AM 89.6 °F 28.4 °F 11% 29.69 in 10.0 mi South 8.1 mph - N/A   Clear
2:56 AM 87.1 °F 28.9 °F 12% 29.60 in 10.0 mi South 12.7 mph - N/A   Partly Cloudy
3:56 AM 88.0 °F 28.9 °F 12% 29.59 in 10.0 mi South 13.8 mph - N/A   Partly Cloudy
4:56 AM 86.0 °F 30.2 °F 13% 29.69 in 10.0 mi South 15.0 mph - N/A   Partly Cloudy
5:56 AM 84.9 °F 30.9 °F 14% 29.61 in 10.0 mi South 12.7 mph - N/A   Partly Cloudy
6:56 AM 87.1 °F 30.0 °F 13% 29.62 in 10.0 mi SW 3.5 mph - N/A   Partly Cloudy
7:56 AM 90.0 °F 32.0 °F 13% 29.63 in 10.0 mi SSW 8.1 mph - N/A   Scattered Clouds
8:56 AM 93.9 °F 30.9 °F 11% 29.64 in 10.0 mi South 11.5 mph - N/A   Scattered Clouds
9:56 AM 97.0 °F 30.0 °F 9% 29.64 in 10.0 mi SE 4.6 mph - N/A   Scattered Clouds
10:56 AM 100.4 °F 30.2 °F 9% 29.73 in 10.0 mi SSW 12.7 mph 23.0 mph N/A   Scattered Clouds
11:56 AM 100.9 °F 32.0 °F 9% 29.61 in 10.0 mi South 13.8 mph 23.0 mph N/A   Scattered Clouds
12:18 PM 102.0 °F 32.0 °F 9% 29.70 in 10.0 mi South 15.0 mph - N/A   Scattered Clouds
12:56 PM 102.0 °F 34.0 °F 9% 29.59 in 10.0 mi South 12.7 mph 18.4 mph N/A   Scattered Clouds
1:56 PM 104.0 °F 33.1 °F 9% 29.57 in 10.0 mi SSW 16.1 mph 28.8 mph N/A   Scattered Clouds
2:33 PM 104.0 °F 30.9 °F 8% 29.66 in 10.0 mi SW 17.3 mph 26.5 mph N/A   Scattered Clouds
2:56 PM 104.0 °F 34.0 °F 9% 29.56 in 10.0 mi South 19.6 mph 33.4 mph N/A   Scattered Clouds
3:56 PM 104.0 °F 33.1 °F 9% 29.53 in 10.0 mi SSW 15.0 mph 28.8 mph N/A   Scattered Clouds
4:56 PM 102.9 °F 32.0 °F 8% 29.53 in 10.0 mi South 17.3 mph 27.6 mph N/A   Scattered Clouds
5:56 PM 102.0 °F 10.9 °F 4% 29.52 in 10.0 mi South 21.9 mph 28.8 mph N/A   Partly Cloudy
6:56 PM 100.0 °F 12.0 °F 4% 29.53 in 10.0 mi South 15.0 mph 25.3 mph N/A   Partly Cloudy
7:56 PM 97.0 °F 18.0 °F 6% 29.53 in 10.0 mi South 15.0 mph - N/A   Partly Cloudy
8:56 PM 95.0 °F 18.0 °F 6% 29.55 in 10.0 mi South 20.7 mph 24.2 mph N/A   Partly Cloudy
9:56 PM 91.9 °F 17.1 °F 6% 29.57 in 10.0 mi SSW 11.5 mph - N/A   Partly Cloudy
10:56 PM 89.1 °F 19.0 °F 8% 29.58 in 10.0 mi South 10.4 mph - N/A   Clear
11:56 PM 87.1 °F 15.1 °F 7% 29.57 in 10.0 mi South 13.8 mph - N/A   Clear